Location: *
(46.4000°N, 12.6667°E)
Time: 17:59:48
(UTC+00:00)

Abrixas rocket - Pass Details

Date: 09 April 2020
Orbit: 345 x 352 km, 48.4° (Epoch: 25 May)

Event Time Altitude Azimuth Distance (km) Brightness Sun altitude
Rises 18:24:25 0° 285° (WNW) 2,158 8.5 -6.6°
Reaches altitude 10° 18:26:26 10° 287° (WNW) 1,317 6.6 -7.0°
Maximum altitude 18:29:22 74° 12° (NNE) 370 2.0 -7.4°
Enters shadow 18:32:13 11° 99° (E) 1,274 4.0 -7.9°
